Find Kosmos-590

NORAD ID: 6847 Int'l Des: 1973-069 Owner: GUKOSR Country: SU operational
LEOCIRCULAR

Live Position

Loading 3D Globe...

About Kosmos-590

Description loading...

Upcoming Passes

Passes for default location (London). Set your location on the main map for personalized predictions.

Altitude History

Loading altitude history...

Two-Line Element Set

1 6847U 73069C 26106.87475012 .00000004 00000-0 13134-3 0 9998
2 6847 74.0005 315.0813 0033998 89.6943 297.5054 12.51109646399407
Epoch: Apr 16, 2026 • Age: 5 hours

Current Status

Altitude 1488.0 km
Velocity 7.11 km/s
Sub-Earth Point -34.28°S, 86.7°W
Type other

Most Searched